TimeADT,TemperatureF,Dew PointF,Humidity,Sea Level PressureIn,VisibilityMPH,Wind Direction,Wind SpeedMPH,Gust SpeedMPH,PrecipitationIn,Events,Conditions,WindDirDegrees,DateUTC
12:00 AM,42.8,-9999,N/A,29.78,-9999.0,South,15.0,-,N/A,,Unknown,170,2013-07-11 03:00:00
1:00 AM,41.0,-9999,N/A,29.78,-9999.0,South,12.7,-,N/A,,Unknown,190,2013-07-11 04:00:00
2:00 AM,42.8,-9999,N/A,29.79,-9999.0,SW,10.4,-,N/A,,Unknown,220,2013-07-11 05:00:00
3:00 AM,41,,,29.78,,South,15.0,,,,,190,2013-07-11 06:00:00
3:00 AM,41.0,-9999,N/A,29.78,-9999.0,South,17.3,-,N/A,,Unknown,190,2013-07-11 06:00:00
4:00 AM,39.2,-9999,N/A,29.76,-9999.0,South,25.3,-,N/A,,Unknown,180,2013-07-11 07:00:00
5:00 AM,37.4,-9999,N/A,29.77,-9999.0,South,25.3,31.1,N/A,,Unknown,180,2013-07-11 08:00:00
6:00 AM,39.2,-9999,N/A,29.78,-9999.0,South,26.5,34.5,N/A,,Unknown,170,2013-07-11 09:00:00
7:00 AM,37.4,-9999,N/A,29.76,-9999.0,SSE,29.9,36.8,N/A,,Unknown,160,2013-07-11 10:00:00
8:00 AM,35.6,-9999,N/A,29.76,-9999.0,SE,26.5,34.5,N/A,,Unknown,140,2013-07-11 11:00:00
9:00 AM,35,,,29.75,,SE,26.5,,,,,130,2013-07-11 12:00:00
9:00 AM,35.6,-9999,N/A,29.75,-9999.0,SE,25.3,-,N/A,,Unknown,130,2013-07-11 12:00:00
10:00 AM,35.6,-9999,N/A,29.74,-9999.0,SE,24.2,33.4,N/A,,Unknown,130,2013-07-11 13:00:00
11:00 AM,-9999,-9999,N/A,29.73,-9999.0,SE,23.0,-,N/A,,Unknown,130,2013-07-11 14:00:00
12:00 PM,-9999,-9999,N/A,29.71,-9999.0,ESE,27.6,-,N/A,,Unknown,120,2013-07-11 15:00:00
1:00 PM,-9999,-9999,N/A,29.68,-9999.0,ESE,29.9,35.7,N/A,,Unknown,120,2013-07-11 16:00:00
2:00 PM,-9999,-9999,N/A,29.66,-9999.0,ESE,32.2,-,N/A,,Unknown,120,2013-07-11 17:00:00
3:00 PM,30,,,29.64,,ESE,32.2,,,,,120,2013-07-11 18:00:00
3:00 PM,-9999,-9999,N/A,29.64,-9999.0,ESE,29.9,36.8,N/A,,Unknown,120,2013-07-11 18:00:00
4:00 PM,-9999,-9999,N/A,29.61,-9999.0,ESE,35.7,-,N/A,,Unknown,120,2013-07-11 19:00:00
5:00 PM,-9999,-9999,N/A,29.58,-9999.0,East,33.4,40.3,N/A,,Unknown,100,2013-07-11 20:00:00
6:00 PM,-9999,-9999,N/A,29.55,-9999.0,East,32.2,50.6,N/A,,Unknown,100,2013-07-11 21:00:00
7:00 PM,-9999,-9999,N/A,29.50,-9999.0,East,42.6,56.4,N/A,,Unknown,100,2013-07-11 22:00:00
8:00 PM,-9999,-9999,N/A,29.45,-9999.0,East,39.1,49.5,N/A,,Unknown,90,2013-07-11 23:00:00
9:00 PM,31,,,29.44,,East,39.1,,,,,100,2013-07-12 00:00:00
9:00 PM,-9999,-9999,N/A,29.44,-9999.0,ESE,43.7,49.5,N/A,,Unknown,110,2013-07-12 00:00:00
10:00 PM,-9999,-9999,N/A,29.40,-9999.0,ESE,44.9,55.2,N/A,,Unknown,110,2013-07-12 01:00:00
11:00 PM,-9999,-9999,N/A,29.37,-9999.0,East,42.6,49.5,N/A,,Unknown,100,2013-07-12 02:00:00